Powrót do katalogu

STARLINK-35357

AktywnyŁącznośćSSO
NORAD 65799·PAYLOAD·🇺🇸 United States

Wystrzelony Sep 26, 2025 z Vandenberg Space Force Base

Loading…

Następne Przeloty (najbliższe 24 godziny)

TLE

ŚwieżeSource: CelesTrak SupGP

Epoka: Sep 14, 2026, 22:31 UTC

1 65799C 25218J   26257.93868056 -.00049202  00000+0 -15273-2 0  2576
2 65799  97.2840 115.3232 0001249 104.7946   9.0979 15.33464256    16

Śledź STARLINK-35357 w czasie rzeczywistym z AllMySat

Download on the App Store